www.pogodaiklimat.ru

ПОГОДА в Оскода Тауншип, MI

  • Прогноз погоды в Оскода Тауншип
  • Монитор погоды в Оскода Тауншип
  • Климат в Оскода Тауншип

АРХИВ ПОГОДЫ в Оскода Тауншип

Время (UTC), дата Ветер
(напр.,м/с)
 
Видим.   Явления Облачность Т
(С)
Тd
(С)
f
(%)
Тe
(С)
Тes
(С)
Комфортность

P
(гПа)

Po
(гПа)
Тmin
(С)
Tmax
(С)
R
(мм)
SD
(см)
04:15 25.06 ЮЗ  16 км    ясно  +17.7  +17.7  100  +18  +18      978.2         
04:35 25.06 ЮЗ  16 км    ясно  +18.2  +18.2  100  +18  +18      978.2         
04:40 25.06 ЮЗ  16 км    ясно  +18.2  +18.2  100  +18  +18      978.2         
04:58 25.06 ЮЗ  16 км    ясно  +18.3  +18.3  100  +18  +18      978.5  +16.9  +20.5  0.3   
05:16 25.06 ЮЗ  16 км    5/5 150 м  +18.1  +18.1  100  +18  +18      978.9         
05:35 25.06 ЮЗ  16 км    5/5 660 м  +18.1  +18.1  100  +18  +18      978.5         
05:55 25.06 ЮЗ  16 км    5/5 660 м  +17.3  +17.3  100  +17  +17      978.9         
05:56 25.06 ЮЗ  16 км    5/5 660 м  +17.2  +17.2  100  +17  +17      979.2         
06:19 25.06 ЮЗ  16 км    ясно  +16.8  +16.8  100  +16  +16      979.2         
06:37 25.06 ЮЗ  16 км    5/5 300 м  +17.0  +17.0  100  +16  +16      979.5         
06:55 25.06 ЮЗ  16 км    8/8 300 м  +16.5  +16.5  100  +16  +16      979.5         
07:15 25.06 ЮЗ  16 км    8/8 300 м  +16.4  +16.4  100  +15  +15      979.9         
07:16 25.06 ЮЗ  16 км    8/8 300 м  +16.5  +16.5  100  +16  +16      979.9         
07:35 25.06 ЮЗ  16 км    8/8 300 м  +16.3  +16.3  100  +15  +15      979.9         
07:40 25.06 ЮЗ  16 км    10/10 300 м  +16.2  +16.2  100  +15  +15      979.9         
07:58 25.06 ЮЗ  16 км    8/8 300 м
[средняя] 
+16.0  +16.0  100  +15  +15      979.9         
08:16 25.06 ЮЗ  16 км    8/5 540 м
[средняя] 
+15.8  +15.8  100  +15  +15      980.2         
08:35 25.06 ЮЗ  16 км    8/0 3300 м
[средняя] 
+15.6  +15.6  100  +14  +14      980.5         
08:36 25.06 ЮЗ  16 км    8/0 3300 м
[средняя] 
+15.6  +15.6  100  +14  +14      980.5         
08:55 25.06 ЮЗ  16 км    8/8 660 м
[средняя] 
+15.7  +15.7  100  +14  +14      980.5         
08:56 25.06 ЮЗ  16 км    8/8 660 м
[средняя] 
+15.7  +15.7  100  +14  +14      980.5         
09:19 25.06 ЮЗ  16 км    10/10 540 м  +15.8  +15.7  99  +14  +14      980.8         
09:37 25.06 ЮЗ  16 км    10/10 540 м  +15.8  +15.6  99  +14  +14      981.2         
09:55 25.06 ЮЗ  16 км    5/5 300 м  +16.0  +16.0  100  +14  +14      981.2         
10:15 25.06 ЮЗ  6
{9} 
16 км    8/8 300 м  +16.3  +16.0  98  +15  +15      981.5         
10:16 25.06 ЮЗ  6
{9} 
16 км    8/8 300 м  +16.2  +16.0  99  +15  +15      981.5         
10:35 25.06 З  16 км    5/5 330 м  +16.7  +16.0  96  +15  +16      981.8         
10:58 25.06 З  16 км    8/8 330 м  +17.1  +16.2  94  +16  +16      982.2  +15.5  +18.5     
11:16 25.06 ЮЗ  16 км    10/10 330 м  +17.7  +16.3  92  +17  +17      982.5         
11:35 25.06 З  7
{8} 
16 км    10/10 390 м  +18.1  +16.2  89  +17  +17      982.8         
11:36 25.06 З  6
{9} 
16 км    10/10 390 м  +18.2  +16.2  88  +18  +18      982.8         
11:55 25.06 З  6
{9} 
16 км    10/10 420 м  +18.7  +16.0  84  +19  +19      982.8         
12:19 25.06 З  8
{10} 
16 км    5/5 480 м  +20.0  +16.1  78  +22  +22  комфорт    983.2         
12:37 25.06 З  9
{12} 
16 км    5/5 540 м  +20.2  +15.7  75  +22  +22  комфорт    983.2         
12:55 25.06 З  9
{11} 
16 км    5/5 600 м  +20.9  +15.6  72  +24  +24  комфорт    983.5         
13:15 25.06 З  8
{11} 
16 км    8/8 660 м  +21.1  +15.2  69  +24  +24  комфорт    983.5         
13:35 25.06 З  8
{10} 
16 км    5/5 660 м  +22.0  +15.3  66  +26  +26  душно    983.8         
13:40 25.06 З  7
{10} 
16 км    5/5 780 м  +21.7  +15.2  67  +25  +26  комфорт    984.2         
13:58 25.06 З  8
{11} 
16 км    8/8 780 м  +22.3  +15.1  64  +26  +26  жарко    984.2         
14:16 25.06 З  7
{12} 
16 км    8/8 840 м  +22.8  +14.7  60  +26  +27  жарко    984.2         
14:35 25.06 З  6
{10} 
16 км    5/5 840 м  +23.2  +15.1  60  +27  +29  душно    984.5         
14:55 25.06 З  9
{12} 
16 км    5/5 1140 м  +23.9  +14.4  55  +26  +27  жарко    984.8         
15:55 25.06 З  8
{14} 
16 км    8/8 1320 м  +24.8  +13.0  48  +27  +27  жарко    985.1         
15:56 25.06 З  8
{14} 
16 км    5/5 1380 м  +25.0  +13.1  48  +27  +28  жарко    985.1         
16:35 25.06 З  8
{12} 
16 км    5/5 1440 м  +25.7  +12.6  44  +27  +28  жарко    985.5         
17:35 25.06 З  6
{9} 
16 км    5/5 1440 м  +26.4  +13.0  43  +28  +31  жарко    985.8         
17:55 25.06 ЮЗ  8
{12} 
16 км    5/5 1500 м  +26.4  +12.7  43  +28  +29  жарко    985.8         
19:15 25.06 З  9
{11} 
16 км    5/5 1800 м  +27.2  +12.7  41  +29  +29  жарко    985.8         

 

Местоположение метеостанции Oscoda-Wurtsmith Airport: широта 44.4500 долгота -83.3667 высота над уровнем моря 193 м.

В архиве по умолчанию представлена погода в Оскода Тауншип за последние 1-2 суток. Обновление информации о фактической погоде в базе происходит ежечасно! Архивные данные за месяц целиком и за предыдущие месяцы Вы можете получить, выбрав интересующий диапазон дат из раскрывающегося списка и нажав кнопку "Ввод!".

Внимание! Архив погоды МЕТАР в базе сайта хранится не более 60 дней. Нет смысла пытаться выбрать более раннюю дату.

Внимание! Время в таблицах - всемирное. Для получения местного времени необходимо прибавить поправку, которая в Оскода Тауншип равна -5 ч.

Ветер - указаны скорость ветра в м/с и направление, откуда дует ветер: С - северный, СВ - северо-восточный, В - восточный, ЮВ - юго-восточный, Ю - южный, ЮЗ - юго-западный, З - западный, СЗ - северо-западный.
Видимость - горизонтальная дальность видимости в метрах или километрах. При видимости от 1 до 10 км при отсутствии осадков обычно наблюдается дымка, при ухудшении видимости до 1 км и менее - туман. В сухую погоду видимость может ухудшаться дымом, пылью или мглою.
Атмосферные явления - указаны явления, наблюдавшиеся в указанный момент времени.
Облачность - указаны через наклонную черту верхняя и нижняя облачность в баллах и высота нижней границы облаков в метрах. Внимание: облачность, как и прочие метеорологические величины в США измеряются автоматическими метеостанциями. Указанные значения в баллах носят условный характер и показывают процент времени, в течение которого, в среднем, лазерный луч высотомера отражался от облаков обратно.
T - Температура воздуха - температура, измеренная на высоте 2 м над землей.
Td - Температура точки росы - температура, при понижении до которой содержащийся в воздухе водяной пар достигнет насыщения.
f - Относительная влажность воздуха - влажноcть воздуха, измеренная на высоте 2 м над землей.
Te - Эффективная температура - температура, которую ощущает одетый по сезону человек в тени. Характеристика душности погоды. При расчете учитывается влияние влажности воздуха и скорости ветра на теплоощущения человека.
Tes - Эффективная температура на солнце - температура, которую ощущает человек, с поправкой на солнечный нагрев. Характеристика знойности погоды. Зависит от высоты солнца над горизонтом, облачности и скорости ветра. Ночью, в пасмурную погоду, а также при ветре 12 м/с и более поправка равна нулю.
P - Атмосферное давление - приведенное к уровню моря атмосферное давление.
Po - Атмосферное давление - измеренное на уровне метеостанции атмосферное давление.
Tmin - Минимальная температура - минимум температуры воздуха на высоте 2 м над землей.
Tmax - Максимальная температура - максимум температуры воздуха на высоте 2 м над землей.
R - Количество осадков - Количество выпавших осадков за 3 или 6 часов, мм.
SD - Снежный покров - Высота снежного покрова, см.